FW7322 Weather Reports


Display with metric or nautical units.
time (UTC)temp
F
wind
direction
speed
MPH
gust
MPH
rain 1hr
in
rain 24hr
in
rain mn
in
humidity
%
barometer
mb
20260508043545 46 67 0.0 6.0 0.02 0.02 0.02 85 1036.2
20260508043050 46 93 0.0 6.0 0.02 0.02 0.02 83 1036.3
20260508042545 46 77 0.0 13.0 0.01 0.01 0.01 83 1036.3
20260508042043 46 83 1.0 13.0 0.00 0.00 0.00 82 1036.2
20260508041543 47 122 3.0 13.0 0.00 0.00 0.00 82 1036.1
20260508041044 47 5 2.0 13.0 0.00 0.00 0.00 82 1035.9
20260508040540 47 72 2.0 9.0 0.00 0.00 0.00 82 1035.9
20260508040038 47 76 2.0 14.0 0.00 0.00 0.00 82 1035.7
20260508035537 47 56 3.0 14.0 0.00 0.00 0.00 82 1035.6
20260508035038 48 79 3.0 9.0 0.00 0.00 0.00 83 1035.4
20260508034542 48 92 0.0 3.0 0.00 0.00 0.00 84 1035.1
20260508034037 48 84 0.0 0.0 0.00 0.00 0.00 84 1034.9
20260508033537 48 80 0.0 2.0 0.00 0.00 0.00 84 1034.8
20260508033037 48 80 0.0 2.0 0.00 0.00 0.00 83 1034.8
20260508032537 48 75 0.0 3.0 0.00 0.00 0.00 84 1034.7
20260508032037 48 82 1.0 3.0 0.00 0.00 0.00 83 1034.6
20260508031537 48 77 0.0 0.0 0.00 0.00 0.00 81 1034.1
20260508031037 49 77 0.0 0.0 0.00 0.00 0.00 80 1034.1
20260508030536 49 77 0.0 1.0 0.00 0.00 0.00 79 1034.1
20260508030036 49 77 0.0 1.0 0.00 0.00 0.00 78 1034.2
20260508025535 50 79 0.0 5.0 0.00 0.00 0.00 78 1034.1
20260508025035 51 112 0.0 12.0 0.00 0.00 0.00 75 1034.2
20260508024536 52 84 5.0 12.0 0.00 0.00 0.00 71 1034.5
20260508024036 54 88 3.0 8.0 0.00 0.00 0.00 64 1034.6
20260508023537 54 93 1.0 4.0 0.00 0.00 0.00 60 1034.4
20260508023036 53 82 1.0 4.0 0.00 0.00 0.00 62 1034.3
20260508022535 53 100 0.0 0.0 0.00 0.00 0.00 66 1033.8
20260508022035 53 100 0.0 0.0 0.00 0.00 0.00 59 1033.5
20260508021536 53 100 0.0 0.0 0.00 0.00 0.00 59 1033.3
20260508021036 53 100 0.0 0.0 0.00 0.00 0.00 62 1033.1
20260508020534 53 123 0.0 0.0 0.00 0.00 0.00 59 1033.1
20260508020038 53 123 0.0 0.0 0.00 0.00 0.00 59 1033.1
20260508015538 53 123 0.0 0.0 0.00 0.00 0.00 59 1033.1
20260508015033 53 123 0.0 0.0 0.00 0.00 0.00 61 1033.1
20260508014534 54 122 0.0 0.0 0.00 0.00 0.00 59 1033.1
20260508014032 54 139 0.0 0.0 0.00 0.00 0.00 59 1033.0
20260508013533 54 139 0.0 0.0 0.00 0.00 0.00 57 1033.0
20260508013033 54 190 0.0 0.0 0.00 0.00 0.00 56 1033.0
20260508012536 54 190 0.0 0.0 0.00 0.00 0.00 55 1032.9
20260508012032 55 73 0.0 0.0 0.00 0.00 0.00 56 1032.8
20260508011532 55 104 0.0 0.0 0.00 0.00 0.00 57 1032.8
20260508011032 55 104 0.0 0.0 0.00 0.00 0.00 57 1032.8
20260508010531 55 104 0.0 0.0 0.00 0.00 0.00 56 1032.8
20260508010034 55 113 0.0 0.0 0.00 0.00 0.00 53 1032.8
20260508005531 55 235 0.0 0.0 0.00 0.00 0.00 53 1032.7
20260508005031 55 138 0.0 0.0 0.00 0.00 0.00 53 1032.6
20260508004532 55 137 0.0 0.0 0.00 0.00 0.00 53 1032.5
20260508004032 55 142 0.0 0.0 0.00 0.00 0.00 54 1032.5
20260508003530 55 143 0.0 0.0 0.00 0.00 0.00 54 1032.3
20260508003030 55 143 0.0 0.0 0.00 0.00 0.00 53 1032.4
20260508002530 55 143 0.0 0.0 0.00 0.00 0.00 54 1032.3
20260508002034 56 143 0.0 0.0 0.00 0.00 0.00 54 1032.3
20260508001529 56 143 0.0 0.0 0.00 0.00 0.00 53 1032.2
20260508001029 56 139 0.0 0.0 0.00 0.00 0.00 51 1032.3
20260508000533 56 209 0.0 0.0 0.00 0.00 0.00 52 1032.3
20260508000028 56 221 0.0 0.0 0.00 0.00 0.00 52 1032.3
20260507235532 56 110 0.0 0.0 0.00 0.00 0.00 52 1032.1
20260507235028 57 110 0.0 0.0 0.00 0.00 0.00 51 1032.1
20260507234538 57 110 0.0 1.0 0.00 0.00 0.00 51 1032.0
20260507234028 57 110 0.0 1.0 0.00 0.00 0.00 51 1032.1
20260507233529 57 110 0.0 2.0 0.00 0.00 0.00 50 1032.1
20260507233027 58 239 0.0 2.0 0.00 0.00 0.00 49 1032.0
20260507232529 58 231 0.0 2.0 0.00 0.00 0.00 50 1031.9
20260507232029 58 252 0.0 2.0 0.00 0.00 0.00 48 1031.7
20260507231527 58 253 0.0 3.0 0.00 0.00 0.00 48 1031.8
20260507231026 59 252 0.0 3.0 0.00 0.00 0.00 48 1031.7
20260507230526 59 293 0.0 2.0 0.00 0.00 0.00 47 1031.7
20260507230026 60 77 0.0 3.0 0.00 0.00 0.00 44 1031.6
20260507225525 60 77 0.0 3.0 0.00 0.00 0.00 42 1031.6
20260507225028 60 115 0.0 3.0 0.00 0.00 0.00 40 1031.6
20260507224527 60 79 0.0 4.0 0.00 0.00 0.00 41 1031.5
20260507224025 61 75 0.0 4.0 0.00 0.00 0.00 40 1031.6
20260507223525 61 78 0.0 2.0 0.00 0.00 0.00 44 1031.6
20260507223025 61 88 0.0 5.0 0.00 0.00 0.00 43 1031.6
20260507222524 61 88 1.0 5.0 0.00 0.00 0.00 43 1031.6
20260507222024 61 84 0.0 2.0 0.00 0.00 0.00 45 1031.5
20260507221524 61 91 0.0 2.0 0.00 0.00 0.00 43 1031.4
20260507221024 62 89 0.0 1.0 0.00 0.00 0.00 41 1031.4
20260507220525 62 89 0.0 2.0 0.00 0.00 0.00 39 1031.5
20260507220023 62 84 0.0 2.0 0.00 0.00 0.00 41 1031.5
20260507215526 62 94 0.0 2.0 0.00 0.00 0.00 41 1031.5
20260507215022 61 94 0.0 4.0 0.00 0.00 0.00 41 1031.5
20260507214525 61 89 1.0 5.0 0.00 0.00 0.00 43 1031.5
20260507214023 62 98 1.0 7.0 0.00 0.00 0.00 41 1031.5
20260507213524 62 89 1.0 7.0 0.00 0.00 0.00 42 1031.6
20260507213022 63 88 2.0 5.0 0.00 0.00 0.00 39 1031.6
20260507212521 64 84 1.0 5.0 0.00 0.00 0.00 39 1031.6
20260507212022 64 89 0.0 4.0 0.00 0.00 0.00 44 1031.6
20260507211521 63 254 1.0 4.0 0.00 0.00 0.00 40 1031.6
20260507211020 63 269 0.0 4.0 0.00 0.00 0.00 41 1031.5
20260507210524 62 242 1.0 5.0 0.00 0.00 0.00 41 1031.6
20260507210020 61 69 0.0 5.0 0.00 0.00 0.00 40 1031.7
20260507205524 61 81 0.0 4.0 0.00 0.00 0.00 41 1031.8
20260507205019 61 85 0.0 10.0 0.00 0.00 0.00 42 1031.7
20260507204519 62 78 3.0 10.0 0.00 0.00 0.00 40 1031.8
20260507204019 63 101 3.0 11.0 0.00 0.00 0.00 40 1031.7
20260507203525 64 71 4.0 12.0 0.00 0.00 0.00 42 1031.6
20260507203018 64 84 2.0 12.0 0.00 0.00 0.00 46 1031.6
20260507202518 63 78 1.0 12.0 0.00 0.00 0.00 41 1031.6
20260507202017 63 78 3.0 12.0 0.00 0.00 0.00 41 1031.7
20260507201517 63 89 2.0 5.0 0.00 0.00 0.00 45 1031.8
20260507201019 63 68 1.0 5.0 0.00 0.00 0.00 47 1031.9
20260507200515 63 66 1.0 9.0 0.00 0.00 0.00 42 1032.1
20260507200014 63 84 1.0 9.0 0.00 0.00 0.00 41 1032.1
20260507195513 63 65 2.0 10.0 0.00 0.00 0.00 43 1032.0
20260507195013 63 84 0.0 11.0 0.00 0.00 0.00 46 1032.1
20260507194513 62 79 3.0 12.0 0.00 0.00 0.00 45 1032.2
20260507194012 62 66 1.0 12.0 0.00 0.00 0.00 42 1032.4
20260507193516 62 96 3.0 10.0 0.00 0.00 0.00 42 1032.4
20260507193012 64 52 3.0 10.0 0.00 0.00 0.00 42 1032.4
20260507192510 63 69 1.0 13.0 0.00 0.00 0.00 47 1032.5
20260507192011 63 102 3.0 13.0 0.00 0.00 0.00 43 1032.6
20260507191511 64 81 3.0 7.0 0.00 0.00 0.00 46 1032.6
20260507191010 63 156 2.0 11.0 0.00 0.00 0.00 46 1032.7
20260507190509 63 84 3.0 11.0 0.00 0.00 0.00 47 1032.6
20260507190012 63 77 3.0 10.0 0.00 0.00 0.00 42 1032.7
20260507185508 62 102 1.0 6.0 0.00 0.00 0.00 40 1032.8
20260507185008 62 81 1.0 7.0 0.00 0.00 0.00 45 1032.8
20260507184507 63 66 3.0 9.0 0.00 0.00 0.00 39 1032.9
20260507184007 63 88 0.0 9.0 0.00 0.00 0.00 44 1033.0
20260507183505 63 87 1.0 5.0 0.00 0.00 0.00 45 1033.1
20260507183004 63 86 0.0 3.0 0.00 0.00 0.00 48 1033.1
20260507182503 61 91 0.0 5.0 0.00 0.00 0.00 47 1033.2
20260507182002 61 217 1.0 8.0 0.00 0.00 0.00 44 1033.2
20260507181505 61 269 2.0 9.0 0.00 0.00 0.00 47 1033.4
20260507181002 61 75 4.0 9.0 0.00 0.00 0.00 45 1033.4
20260507180501 62 87 2.0 8.0 0.00 0.00 0.00 44 1033.5
20260507175559 61 84 0.0 11.0 0.00 0.02 0.00 52 1033.7
20260507175059 61 82 4.0 12.0 0.00 0.02 0.00 48 1033.5
20260507174606 60 136 3.0 13.0 0.00 0.02 0.00 44 1033.6
20260507174059 61 75 5.0 13.0 0.00 0.02 0.00 52 1033.8
20260507173559 61 252 1.0 9.0 0.00 0.02 0.00 46 1033.8
20260507173055 60 81 0.0 7.0 0.00 0.02 0.00 48 1033.8
20260507172556 60 98 3.0 7.0 0.00 0.02 0.00 50 1033.9
20260507172054 58 70 2.0 8.0 0.00 0.02 0.00 48 1034.0
20260507171603 58 100 0.0 8.0 0.00 0.02 0.00 50 1034.1
20260507171053 58 166 1.0 8.0 0.00 0.02 0.00 51 1034.1
20260507170552 58 226 0.0 6.0 0.00 0.02 0.00 50 1034.1
20260507170053 58 78 0.0 4.0 0.00 0.02 0.00 51 1034.2
20260507165552 57 90 0.0 7.0 0.00 0.02 0.00 52 1034.3
20260507165054 57 79 1.0 7.0 0.00 0.02 0.00 48 1034.3
20260507164552 57 59 1.0 7.0 0.00 0.02 0.00 48 1034.5
20260507164052 57 86 2.0 7.0 0.00 0.02 0.00 48 1034.4
20260507163552 57 121 0.0 4.0 0.00 0.02 0.00 49 1034.6
20260507163051 56 25 0.0 5.0 0.00 0.02 0.00 49 1034.7
20260507162552 57 73 1.0 7.0 0.00 0.02 0.00 53 1034.9
20260507162051 57 32 2.0 7.0 0.00 0.02 0.00 48 1034.8
20260507161550 58 79 0.0 9.0 0.00 0.02 0.00 48 1034.8
20260507161050 59 86 2.0 9.0 0.00 0.02 0.00 49 1034.9
20260507160550 58 99 2.0 8.0 0.00 0.02 0.00 49 1035.0
20260507160053 58 81 1.0 7.0 0.00 0.02 0.00 50 1034.9
20260507155549 58 146 0.0 7.0 0.00 0.07 0.00 45 1035.3
20260507155049 58 77 1.0 7.0 0.00 0.07 0.00 51 1035.3
20260507154549 58 76 2.0 7.0 0.00 0.07 0.00 50 1035.4
20260507154049 58 217 0.0 8.0 0.00 0.07 0.00 47 1035.4
20260507153548 58 88 2.0 9.0 0.00 0.07 0.00 48 1035.4
20260507153048 59 61 1.0 9.0 0.00 0.07 0.00 48 1035.5
20260507152548 59 308 0.0 5.0 0.00 0.07 0.00 57 1035.6
20260507152048 58 90 0.0 3.0 0.00 0.07 0.00 54 1035.7
20260507151546 58 246 0.0 7.0 0.00 0.07 0.00 54 1035.7
20260507151043 57 153 0.0 10.0 0.00 0.07 0.00 52 1035.8
20260507150544 56 82 2.0 10.0 0.00 0.07 0.00 53 1035.9
20260507150043 56 78 1.0 8.0 0.00 0.07 0.00 52 1035.9
20260507145543 56 79 1.0 8.0 0.00 0.14 0.00 51 1036.1
20260507145041 56 78 0.0 7.0 0.00 0.14 0.00 54 1036.1
20260507144608 56 72 3.0 7.0 0.00 0.14 0.00 51 1036.1
20260507144041 55 86 1.0 6.0 0.00 0.14 0.00 53 1036.1
20260507143541 55 89 2.0 7.0 0.00 0.14 0.00 51 1036.1
20260507143042 56 85 1.0 8.0 0.00 0.14 0.00 50 1036.1
20260507142541 56 79 3.0 8.0 0.00 0.14 0.00 50 1036.2
20260507142040 55 79 0.0 6.0 0.00 0.14 0.00 57 1036.3
20260507141543 55 79 2.0 6.0 0.00 0.14 0.00 48 1036.2
20260507141039 54 81 0.0 7.0 0.00 0.14 0.00 54 1036.1
20260507140539 55 86 3.0 7.0 0.00 0.14 0.00 51 1036.2
20260507140039 54 79 1.0 7.0 0.00 0.14 0.00 51 1036.2
20260507135540 54 103 1.0 6.0 0.00 0.21 0.00 55 1036.2
20260507135040 54 82 2.0 7.0 0.00 0.21 0.00 53 1036.3
20260507134542 54 74 0.0 7.0 0.00 0.21 0.00 53 1036.4
20260507134037 54 72 1.0 6.0 0.00 0.21 0.00 54 1036.5
20260507133537 54 77 0.0 8.0 0.00 0.21 0.00 54 1036.5
20260507133038 53 84 1.0 8.0 0.00 0.21 0.00 55 1036.5
20260507132536 53 73 1.0 5.0 0.00 0.21 0.00 56 1036.7
20260507132036 53 60 2.0 7.0 0.00 0.21 0.00 56 1036.5
20260507131536 54 75 2.0 7.0 0.00 0.21 0.00 58 1036.6
20260507131037 55 60 0.0 1.0 0.00 0.21 0.00 63 1036.5
20260507130534 53 132 0.0 1.0 0.00 0.21 0.00 67 1036.5
20260507130030 52 67 0.0 0.0 0.00 0.21 0.00 68 1036.6
20260507125530 52 236 0.0 0.0 0.00 0.28 0.00 69 1036.6
20260507125033 52 75 0.0 3.0 0.00 0.28 0.00 68 1036.6
20260507124529 51 79 0.0 3.0 0.00 0.28 0.00 70 1036.6
20260507124033 51 90 0.0 1.0 0.00 0.28 0.00 71 1036.6
20260507123529 52 79 0.0 0.0 0.00 0.28 0.00 68 1036.6
20260507123029 52 160 0.0 1.0 0.00 0.28 0.00 70 1036.5
20260507122528 52 271 0.0 1.0 0.00 0.28 0.00 69 1036.5
20260507122027 52 146 0.0 0.0 0.00 0.28 0.00 69 1036.4
20260507121526 52 71 0.0 0.0 0.00 0.28 0.00 70 1036.4
20260507121025 51 63 0.0 2.0 0.00 0.28 0.00 71 1036.4
20260507120524 51 259 0.0 2.0 0.00 0.28 0.00 72 1036.4
20260507120024 51 91 0.0 3.0 0.00 0.28 0.00 71 1036.2
20260507115523 50 74 0.0 3.0 0.00 0.28 0.00 73 1036.3
20260507115022 50 86 0.0 1.0 0.00 0.28 0.00 75 1036.3
20260507114521 50 86 0.0 2.0 0.00 0.28 0.00 74 1036.2
20260507114021 50 85 0.0 2.0 0.00 0.28 0.00 74 1036.1
20260507113520 50 86 0.0 2.0 0.00 0.28 0.00 75 1036.0
20260507113020 49 86 0.0 2.0 0.00 0.28 0.00 74 1036.1
20260507112522 49 79 0.0 2.0 0.00 0.28 0.00 76 1036.1
20260507112021 48 75 0.0 2.0 0.00 0.28 0.00 76 1036.2
20260507111530 48 96 0.0 2.0 0.00 0.28 0.00 76 1036.1
20260507111017 49 75 0.0 2.0 0.00 0.28 0.00 77 1036.0
20260507110517 48 91 0.0 0.0 0.00 0.28 0.00 79 1035.9
20260507110017 47 91 0.0 0.0 0.00 0.28 0.00 80 1036.0
20260507105516 46 91 0.0 0.0 0.00 0.28 0.00 82 1036.0
20260507105016 46 91 0.0 0.0 0.00 0.28 0.00 81 1035.9
20260507104519 45 91 0.0 0.0 0.00 0.28 0.00 83 1035.8
20260507104015 43 91 0.0 0.0 0.00 0.28 0.00 84 1035.8
20260507103514 43 91 0.0 0.0 0.00 0.28 0.00 84 1035.8
20260507103014 43 91 0.0 0.0 0.00 0.28 0.00 84 1035.7
20260507102513 43 91 0.0 1.0 0.00 0.28 0.00 83 1035.8
20260507102013 43 85 0.0 1.0 0.00 0.28 0.00 83 1035.7
20260507101511 43 86 0.0 2.0 0.00 0.28 0.00 82 1035.5
20260507101010 43 86 0.0 2.0 0.00 0.28 0.00 82 1035.5
20260507100508 44 88 0.0 2.0 0.00 0.28 0.00 81 1035.5
20260507100011 44 88 0.0 2.0 0.00 0.28 0.00 81 1035.5
20260507095508 44 252 0.0 3.0 0.00 0.28 0.00 80 1035.4
20260507095011 45 76 0.0 7.0 0.00 0.28 0.00 80 1035.4
20260507094506 45 68 2.0 7.0 0.00 0.28 0.00 80 1035.2
20260507094005 45 63 0.0 4.0 0.00 0.28 0.00 80 1035.1
20260507093505 45 81 1.0 4.0 0.00 0.28 0.00 79 1035.1
20260507093005 45 80 0.0 5.0 0.00 0.28 0.00 80 1035.1
20260507092503 45 83 0.0 5.0 0.00 0.28 0.00 79 1035.1
20260507092001 46 79 0.0 5.0 0.00 0.28 0.00 80 1034.9
20260507091501 46 79 1.0 6.0 0.00 0.28 0.00 80 1034.8
20260507091101 46 77 0.0 6.0 0.00 0.28 0.00 80 1034.9
20260507090559 46 110 0.0 6.0 0.00 0.28 0.00 81 1035.1
20260507090059 46 88 0.0 3.0 0.00 0.28 0.00 81 1035.1
20260507085559 47 102 0.0 3.0 0.00 0.28 0.00 81 1035.0
20260507085059 47 91 0.0 4.0 0.00 0.28 0.00 82 1035.0
20260507084559 47 81 0.0 4.0 0.00 0.28 0.00 83 1034.7
20260507084059 47 77 0.0 4.0 0.00 0.28 0.00 83 1034.7
20260507083558 47 83 0.0 3.0 0.00 0.28 0.00 85 1034.7
20260507083059 47 67 0.0 3.0 0.00 0.28 0.00 85 1034.6
20260507082558 46 93 0.0 3.0 0.00 0.28 0.00 86 1034.7
20260507082057 46 83 0.0 1.0 0.00 0.28 0.00 87 1034.8
20260507081558 46 83 0.0 0.0 0.00 0.28 0.00 87 1034.8
20260507081058 46 83 0.0 0.0 0.00 0.28 0.00 87 1034.8
20260507080558 46 83 0.0 0.0 0.00 0.28 0.00 87 1034.7
20260507080059 46 83 0.0 1.0 0.00 0.28 0.00 86 1034.7
20260507075556 46 83 0.0 1.0 0.00 0.28 0.00 86 1034.7
20260507075056 46 83 0.0 1.0 0.00 0.28 0.00 86 1034.7
20260507074556 46 83 0.0 0.0 0.00 0.28 0.00 84 1034.6
20260507074054 46 83 0.0 0.0 0.00 0.28 0.00 84 1034.9
20260507073554 47 83 0.0 1.0 0.00 0.28 0.00 83 1034.8
20260507073058 47 83 0.0 1.0 0.00 0.28 0.00 82 1034.7
20260507072552 48 84 0.0 6.0 0.00 0.28 0.00 82 1034.9
20260507072051 48 84 1.0 6.0 0.00 0.28 0.00 82 1034.9
20260507071553 48 83 0.0 1.0 0.00 0.28 0.00 82 1035.1
20260507071049 49 83 0.0 6.0 0.00 0.28 0.00 82 1034.9
20260507070548 49 84 0.0 6.0 0.00 0.28 0.00 81 1034.8
20260507070051 49 95 0.0 5.0 0.00 0.28 0.00 81 1034.9
20260507065549 49 86 0.0 3.0 0.00 0.28 0.00 81 1034.9
20260507065046 49 85 0.0 5.0 0.00 0.28 0.00 80 1035.0
20260507064548 49 89 0.0 7.0 0.00 0.28 0.00 81 1035.0
20260507064046 49 84 1.0 7.0 0.00 0.28 0.00 81 1034.9
20260507063550 49 82 1.0 5.0 0.00 0.28 0.00 82 1034.9
20260507063049 49 93 0.0 7.0 0.00 0.28 0.00 83 1035.1
20260507062545 50 58 1.0 7.0 0.00 0.28 0.00 83 1035.1
20260507062044 49 111 2.0 8.0 0.00 0.28 0.00 84 1035.1
20260507061544 49 106 1.0 8.0 0.00 0.28 0.00 85 1034.9
20260507061042 50 80 0.0 6.0 0.00 0.28 0.00 87 1034.9
20260507060541 50 96 0.0 2.0 0.00 0.28 0.00 87 1034.7
20260507060051 50 91 0.0 2.0 0.00 0.28 0.00 87 1034.7
20260507055541 50 96 0.0 5.0 0.00 0.28 0.00 87 1034.7
20260507055041 49 82 0.0 5.0 0.00 0.28 0.00 87 1034.5
20260507054547 49 97 0.0 3.0 0.00 0.28 0.00 87 1034.4
20260507054039 49 102 0.0 2.0 0.00 0.28 0.00 88 1034.5
20260507053539 49 80 0.0 1.0 0.00 0.28 0.00 88 1034.6
20260507053042 49 79 0.0 0.0 0.00 0.28 0.00 88 1034.7
20260507052538 49 78 0.0 0.0 0.00 0.28 0.00 88 1034.6
20260507052038 49 78 0.0 0.0 0.00 0.28 0.00 88 1034.5
20260507051539 49 79 0.0 0.0 0.00 0.28 0.00 88 1034.3
20260507051041 49 78 0.0 0.0 0.00 0.28 0.00 88 1034.4
20260507050539 49 78 0.0 0.0 0.00 0.28 0.00 88 1034.4
20260507050038 49 78 0.0 0.0 0.00 0.28 0.00 88 1034.2
20260507045541 49 79 0.0 0.0 0.00 0.28 0.00 88 1034.6
20260507045037 49 78 0.0 0.0 0.00 0.28 0.00 88 1034.6
20260507044549 49 78 0.0 0.0 0.00 0.28 0.00 88 1034.4
20260507044036 50 78 0.0 0.0 0.00 0.28 0.00 88 1034.1